Time,TemperatureF,DewpointF,PressureIn,WindDirection,WindDirectionDegrees,WindSpeedMPH,WindSpeedGustMPH,Humidity,HourlyPrecipIn,Conditions,Clouds,dailyrainin,SolarRadiationWatts/m^2,SoftwareType,DateUTC
2013-01-31 00:01:00,11.0,7.0,-100.00,NW,314,4.0,12.0,85,0.00,,,0.06,0.000000,,2013-01-31 06:01:00,
2013-01-31 07:10:00,2.0,-3.0,-100.00,NW,307,4.0,10.0,80,0.00,,,0.08,0.000000,,2013-01-31 13:10:00,
2013-01-31 08:02:00,2.0,-3.0,-100.00,NW,307,4.0,10.0,80,0.00,,,0.08,0.000000,,2013-01-31 14:02:00,
2013-01-31 08:10:00,2.0,-3.0,-100.00,NW,306,4.0,9.0,79,0.00,,,-99.99,9.000000,,2013-01-31 14:10:00,
2013-01-31 08:32:00,2.0,-3.0,-100.00,NW,306,4.0,9.0,79,0.00,,,-99.99,9.000000,,2013-01-31 14:32:00,
2013-01-31 08:42:00,2.0,-3.0,-100.00,NW,306,4.0,9.0,79,0.00,,,-99.99,9.000000,,2013-01-31 14:42:00,
2013-01-31 08:52:00,2.0,-3.0,-100.00,NW,306,4.0,9.0,79,0.00,,,-99.99,9.000000,,2013-01-31 14:52:00,
2013-01-31 09:03:00,2.0,-3.0,-100.00,NW,306,4.0,9.0,79,0.00,,,-99.99,9.000000,,2013-01-31 15:03:00,
2013-01-31 09:10:00,4.0,-2.0,-100.00,NW,306,6.0,12.0,77,0.00,,,0.08,29.000000,,2013-01-31 15:10:00,
2013-01-31 09:32:00,4.0,-2.0,-100.00,NW,306,6.0,12.0,77,0.00,,,0.08,29.000000,,2013-01-31 15:32:00,
2013-01-31 09:42:00,4.0,-2.0,-100.00,NW,306,6.0,12.0,77,0.00,,,0.08,29.000000,,2013-01-31 15:42:00,
2013-01-31 09:52:00,4.0,-2.0,-100.00,NW,306,6.0,12.0,77,0.00,,,0.08,29.000000,,2013-01-31 15:52:00,
2013-01-31 10:03:00,4.0,-2.0,-100.00,NW,306,6.0,12.0,77,0.00,,,0.08,29.000000,,2013-01-31 16:03:00,
2013-01-31 10:10:00,7.0,0.0,-100.00,NW,311,7.0,17.0,74,0.00,,,0.08,96.000000,,2013-01-31 16:10:00,
2013-01-31 10:42:00,7.0,0.0,-100.00,NW,311,7.0,17.0,74,0.00,,,0.08,96.000000,,2013-01-31 16:42:00,
2013-01-31 10:52:00,7.0,0.0,-100.00,NW,311,7.0,17.0,74,0.00,,,0.08,96.000000,,2013-01-31 16:52:00,
2013-01-31 11:02:00,7.0,0.0,-100.00,NW,311,7.0,17.0,74,0.00,,,0.08,96.000000,,2013-01-31 17:02:00,
2013-01-31 11:10:00,10.0,3.0,-100.00,NW,313,7.0,15.0,71,0.00,,,0.08,166.000000,,2013-01-31 17:10:00,
2013-01-31 11:44:00,10.0,3.0,-100.00,NW,313,7.0,15.0,71,0.00,,,0.08,166.000000,,2013-01-31 17:44:00,
2013-01-31 11:53:00,10.0,3.0,-100.00,NW,313,7.0,15.0,71,0.00,,,0.08,166.000000,,2013-01-31 17:53:00,
2013-01-31 12:03:00,10.0,3.0,-100.00,NW,313,7.0,15.0,71,0.00,,,0.08,166.000000,,2013-01-31 18:03:00,
2013-01-31 12:10:00,10.0,1.0,-100.00,NNW,330,11.0,19.0,66,0.00,,,0.06,232.000000,,2013-01-31 18:10:00,
2013-01-31 12:32:00,10.0,1.0,-100.00,NNW,330,11.0,19.0,66,0.00,,,0.06,232.000000,,2013-01-31 18:32:00,
2013-01-31 12:43:00,10.0,1.0,-100.00,NNW,330,11.0,19.0,66,0.00,,,0.06,232.000000,,2013-01-31 18:43:00,
2013-01-31 12:52:00,10.0,1.0,-100.00,NNW,330,11.0,19.0,66,0.00,,,0.06,232.000000,,2013-01-31 18:52:00,
2013-01-31 13:02:00,10.0,1.0,-100.00,NNW,330,11.0,19.0,66,0.00,,,0.06,232.000000,,2013-01-31 19:02:00,
2013-01-31 13:10:00,10.0,-1.0,-100.00,NW,320,10.0,20.0,61,0.00,,,0.05,291.000000,,2013-01-31 19:10:00,
2013-01-31 13:33:00,10.0,-1.0,-100.00,NW,320,10.0,20.0,61,0.00,,,0.05,291.000000,,2013-01-31 19:33:00,
2013-01-31 13:43:00,10.0,-1.0,-100.00,NW,320,10.0,20.0,61,0.00,,,0.05,291.000000,,2013-01-31 19:43:00,
2013-01-31 13:52:00,10.0,-1.0,-100.00,NW,320,10.0,20.0,61,0.00,,,0.05,291.000000,,2013-01-31 19:52:00,
2013-01-31 14:02:00,10.0,-1.0,-100.00,NW,320,10.0,20.0,61,0.00,,,0.05,291.000000,,2013-01-31 20:02:00,
2013-01-31 15:10:00,8.0,-3.0,-100.00,NW,319,10.0,21.0,61,-99.99,,,0.04,170.000000,,2013-01-31 21:10:00,
2013-01-31 15:42:00,8.0,-3.0,-100.00,NW,319,10.0,21.0,61,-99.99,,,0.04,170.000000,,2013-01-31 21:42:00,
2013-01-31 15:52:00,8.0,-3.0,-100.00,NW,319,10.0,21.0,61,-99.99,,,0.04,170.000000,,2013-01-31 21:52:00,
2013-01-31 16:03:00,8.0,-3.0,-100.00,NW,319,10.0,21.0,61,-99.99,,,0.04,170.000000,,2013-01-31 22:03:00,
2013-01-31 16:10:00,6.0,-4.0,-100.00,NW,318,7.0,17.0,62,0.00,,,0.04,101.000000,,2013-01-31 22:10:00,
2013-01-31 16:33:00,6.0,-4.0,-100.00,NW,318,7.0,17.0,62,0.00,,,0.04,101.000000,,2013-01-31 22:33:00,
2013-01-31 16:42:00,6.0,-4.0,-100.00,NW,318,7.0,17.0,62,0.00,,,0.04,101.000000,,2013-01-31 22:42:00,
2013-01-31 16:52:00,6.0,-4.0,-100.00,NW,318,7.0,17.0,62,0.00,,,0.04,101.000000,,2013-01-31 22:52:00,
2013-01-31 17:02:00,6.0,-4.0,-100.00,NW,318,7.0,17.0,62,0.00,,,0.04,101.000000,,2013-01-31 23:02:00,
2013-01-31 17:10:00,4.0,-4.0,-100.00,NW,313,6.0,16.0,67,0.00,,,0.03,17.000000,,2013-01-31 23:10:00,
2013-01-31 17:42:00,4.0,-4.0,-100.00,NW,313,6.0,16.0,67,0.00,,,0.03,17.000000,,2013-01-31 23:42:00,
2013-01-31 17:52:00,4.0,-4.0,-100.00,NW,313,6.0,16.0,67,0.00,,,0.03,17.000000,,2013-01-31 23:52:00,
2013-01-31 18:01:00,4.0,-4.0,-100.00,NW,313,6.0,16.0,67,0.00,,,0.03,17.000000,,2013-02-01 00:01:00,
2013-01-31 18:10:00,3.0,-5.0,-100.00,NW,309,6.0,13.0,70,0.00,,,0.03,0.000000,,2013-02-01 00:10:00,
2013-01-31 18:32:00,3.0,-5.0,-100.00,NW,309,6.0,13.0,70,0.00,,,0.03,0.000000,,2013-02-01 00:32:00,
2013-01-31 18:42:00,3.0,-5.0,-100.00,NW,309,6.0,13.0,70,0.00,,,0.03,0.000000,,2013-02-01 00:42:00,
2013-01-31 18:52:00,3.0,-5.0,-100.00,NW,309,6.0,13.0,70,0.00,,,0.03,0.000000,,2013-02-01 00:52:00,
2013-01-31 19:01:00,3.0,-5.0,-100.00,NW,309,6.0,13.0,70,0.00,,,0.03,0.000000,,2013-02-01 01:01:00,
2013-01-31 19:10:00,2.0,-4.0,-100.00,NW,305,5.0,12.0,74,0.00,,,-99.99,0.000000,,2013-02-01 01:10:00,
2013-01-31 19:32:00,2.0,-4.0,-100.00,NW,305,5.0,12.0,74,0.00,,,-99.99,0.000000,,2013-02-01 01:32:00,
2013-01-31 19:42:00,2.0,-4.0,-100.00,NW,305,5.0,12.0,74,0.00,,,-99.99,0.000000,,2013-02-01 01:42:00,
2013-01-31 19:52:00,2.0,-4.0,-100.00,NW,305,5.0,12.0,74,0.00,,,-99.99,0.000000,,2013-02-01 01:52:00,
2013-01-31 20:02:00,2.0,-4.0,-100.00,NW,305,5.0,12.0,74,0.00,,,-99.99,0.000000,,2013-02-01 02:02:00,
2013-01-31 20:10:00,2.0,-5.0,-100.00,NW,309,6.0,11.0,73,0.00,,,0.03,0.000000,,2013-02-01 02:10:00,
2013-01-31 20:42:00,2.0,-5.0,-100.00,NW,309,6.0,11.0,73,0.00,,,0.03,0.000000,,2013-02-01 02:42:00,
2013-01-31 20:52:00,2.0,-5.0,-100.00,NW,309,6.0,11.0,73,0.00,,,0.03,0.000000,,2013-02-01 02:52:00,
2013-01-31 21:02:00,2.0,-5.0,-100.00,NW,309,6.0,11.0,73,0.00,,,0.03,0.000000,,2013-02-01 03:02:00,
2013-01-31 21:10:00,1.0,-6.0,-100.00,NW,309,6.0,15.0,73,0.00,,,0.02,0.000000,,2013-02-01 03:10:00,
2013-01-31 21:33:00,1.0,-6.0,-100.00,NW,309,6.0,15.0,73,0.00,,,0.02,0.000000,,2013-02-01 03:33:00,
2013-01-31 21:42:00,1.0,-6.0,-100.00,NW,309,6.0,15.0,73,0.00,,,0.02,0.000000,,2013-02-01 03:42:00,
2013-01-31 21:52:00,1.0,-6.0,-100.00,NW,309,6.0,15.0,73,0.00,,,0.02,0.000000,,2013-02-01 03:52:00,
2013-01-31 22:02:00,1.0,-6.0,-100.00,NW,309,6.0,15.0,73,0.00,,,0.02,0.000000,,2013-02-01 04:02:00,
2013-01-31 22:10:00,1.0,-6.0,-100.00,NW,318,6.0,13.0,73,0.00,,,0.02,0.000000,,2013-02-01 04:10:00,
2013-01-31 22:32:00,1.0,-6.0,-100.00,NW,318,6.0,13.0,73,0.00,,,0.02,0.000000,,2013-02-01 04:32:00,
2013-01-31 22:42:00,1.0,-6.0,-100.00,NW,318,6.0,13.0,73,0.00,,,0.02,0.000000,,2013-02-01 04:42:00,
2013-01-31 22:52:00,1.0,-6.0,-100.00,NW,318,6.0,13.0,73,0.00,,,0.02,0.000000,,2013-02-01 04:52:00,
2013-01-31 23:03:00,1.0,-6.0,-100.00,NW,318,6.0,13.0,73,0.00,,,0.02,0.000000,,2013-02-01 05:03:00,
2013-01-31 23:10:00,1.0,-6.0,-100.00,NW,311,6.0,13.0,72,0.00,,,0.02,0.000000,,2013-02-01 05:10:00,
2013-01-31 23:32:00,1.0,-6.0,-100.00,NW,311,6.0,13.0,72,0.00,,,0.02,0.000000,,2013-02-01 05:32:00,
2013-01-31 23:42:00,1.0,-6.0,-100.00,NW,311,6.0,13.0,72,0.00,,,0.02,0.000000,,2013-02-01 05:42:00,
2013-01-31 23:52:00,1.0,-6.0,-100.00,NW,311,6.0,13.0,72,0.00,,,0.02,0.000000,,2013-02-01 05:52:00,